Location: Northern Prairie Star Party
(53.2167°N, 112.5333°W)
Time: 01:51:14
(UTC-06:00)

Amateur Radio Satellites - All Passes

Search period start: 24 April 2014 01:21
Search period end: 25 April 2014 01:21
Location: Northern Prairie Star Party, 53.2167°N, 112.5333°W

Satellite Date Start Highest point End Downlink Frequencies (MHz)
Time Altitude Azimuth
Sapphire 24 Apr 01:30:01 01:35:27 86° 310° (NW) 01:40:55 437.095 MHz 1200 baud AX-25 AFSK
KITSAT 1 24 Apr 01:30:51 01:36:00 19° 101° (E) 01:41:09 435.175 FM
Oscar 19 24 Apr 01:37:38 01:39:13 11° 82° (E) 01:40:47 437.125 CW, 437.150 USB
OPAL 24 Apr 01:43:28 01:47:38 26° 54° (NE) 01:51:52 ?
Oscar 16 24 Apr 01:45:52 01:48:38 14° 85° (E) 01:51:23 437.025 USB, Beacon 2401.1428
PCSat 24 Apr 02:14:52 02:20:07 48° 320° (NW) 02:25:24 145.825 MHz
Uribyol 2 24 Apr 02:29:40 02:33:11 18° 88° (E) 02:36:40 436.500 FM
AO-Echo 24 Apr 02:38:36 02:41:26 16° 86° (E) 02:44:13 ?
UOSAT-12 24 Apr 03:00:02 03:03:01 17° 247° (WSW) 03:05:58 437.025 FM, 437.400 FM
AO-27 24 Apr 03:11:46 03:16:33 36° 96° (E) 03:21:19 436.795 MHz FM
Oscar 19 24 Apr 03:14:26 03:19:38 64° 102° (ESE) 03:24:48 437.125 CW, 437.150 USB
Sapphire 24 Apr 03:14:55 03:19:37 29° 333° (NNW) 03:24:20 437.095 MHz 1200 baud AX-25 AFSK
ITAMSAT 1 24 Apr 03:21:05 03:26:00 42° 98° (E) 03:30:53 435.822 SSB
OPAL 24 Apr 03:21:06 03:26:09 67° 254° (WSW) 03:31:19 ?
KITSAT 1 24 Apr 03:21:56 03:29:57 67° 123° (ESE) 03:38:00 435.175 FM
Oscar 16 24 Apr 03:23:38 03:28:52 79° 105° (ESE) 03:34:05 437.025 USB, Beacon 2401.1428
Gurwin Techsat 1B 24 Apr 03:32:48 03:36:51 21° 89° (E) 03:40:51 435.225 FM
PCSat 24 Apr 04:00:39 04:04:49 22° 344° (NNW) 04:08:59 145.825 MHz
Uribyol 2 24 Apr 04:08:08 04:13:21 84° 288° (WNW) 04:18:33 436.500 FM
JAS-1B 24 Apr 04:09:14 04:13:01 18° 87° (E) 04:16:52 435.800 - 435.900 CW/SSB
AO-Echo 24 Apr 04:16:07 04:20:57 86° 286° (WNW) 04:25:39 ?
TMSAT-1 24 Apr 04:17:18 04:22:08 35° 95° (E) 04:26:57 436.925 FM
AO-7 24 Apr 04:30:41 04:36:15 19° 84° (E) 04:41:49 29.400 - 29.500 MHz
Uosat F 24 Apr 04:39:27 04:43:14 21° 90° (E) 04:46:59 435.120 FM
MaSat-1 24 Apr 04:47:57 04:49:51 17° 43° (NE) 04:51:54 437.345 MHz
AO-27 24 Apr 04:51:18 04:56:11 43° 296° (WNW) 05:01:03 436.795 MHz FM
Oscar 19 24 Apr 04:54:21 04:58:38 27° 302° (WNW) 05:02:55 437.125 CW, 437.150 USB
ITAMSAT 1 24 Apr 05:00:44 05:05:29 38° 298° (WNW) 05:10:14 435.822 SSB
Sapphire 24 Apr 05:00:57 05:04:46 19° 358° (N) 05:08:35 437.095 MHz 1200 baud AX-25 AFSK
Oscar 16 24 Apr 05:03:46 05:07:44 22° 305° (NW) 05:11:41 437.025 USB, Beacon 2401.1428
OPAL 24 Apr 05:04:14 05:06:04 12° 275° (W) 05:07:55 ?
Gurwin Techsat 1B 24 Apr 05:12:04 05:17:24 73° 289° (WNW) 05:22:41 435.225 FM
KITSAT 1 24 Apr 05:17:54 05:25:47 51° 328° (NNW) 05:33:41 435.175 FM
RS-15 24 Apr 05:35:12 05:43:17 24° 101° (E) 05:51:13 29.354 - 29.394 USB, Beacon 29.352 USB
PCSat 24 Apr 05:46:10 05:50:09 20° 10° (N) 05:54:07 145.825 MHz
Uribyol 2 24 Apr 05:48:39 05:52:09 19° 308° (NW) 05:55:39 436.500 FM
AO-Echo 24 Apr 05:56:04 05:59:04 17° 307° (NW) 06:02:02 ?
TMSAT-1 24 Apr 05:57:10 06:02:13 46° 295° (WNW) 06:07:15 436.925 FM
JAS-1B 24 Apr 05:58:53 06:04:36 85° 288° (WNW) 06:10:30 435.800 - 435.900 CW/SSB
STRAND 1 24 Apr 06:08:06 06:12:41 35° 61° (ENE) 06:17:16 ?
Uosat F 24 Apr 06:17:32 06:22:32 69° 290° (WNW) 06:27:30 435.120 FM
AO-7 24 Apr 06:22:16 06:30:37 71° 107° (ESE) 06:38:56 29.400 - 29.500 MHz
MaSat-1 24 Apr 06:25:33 06:28:22 50° 239° (WSW) 06:31:38 437.345 MHz
AO-27 24 Apr 06:33:32 06:34:30 11° 317° (NW) 06:35:27 436.795 MHz FM
Sapphire 24 Apr 06:45:28 06:50:01 26° 24° (NNE) 06:54:33 437.095 MHz 1200 baud AX-25 AFSK
Gurwin Techsat 1B 24 Apr 06:53:15 06:56:33 17° 310° (NW) 06:59:51 435.225 FM
AO-40 24 Apr 07:02:22 11:27:45 23° 174° (S) 14:22:22 Beacon 2401.320
JAS-2 24 Apr 07:08:24 07:11:18 14° 86° (E) 07:14:18 435.800 - 435.900 CW/SSB, 435.910 FM
KITSAT 1 24 Apr 07:15:52 07:23:06 33° 356° (N) 07:30:20 435.175 FM
Hamsat 24 Apr 07:17:28 07:21:28 34° 95° (E) 07:25:26 145.90 MHz
PCSat 24 Apr 07:29:57 07:35:03 39° 35° (NE) 07:40:07 145.825 MHz
TMSAT-1 24 Apr 07:39:23 07:40:57 11° 316° (NW) 07:42:31 436.925 FM
RS-15 24 Apr 07:42:37 07:53:44 73° 126° (SE) 08:04:37 29.354 - 29.394 USB, Beacon 29.352 USB
STRAND 1 24 Apr 07:46:55 07:51:48 45° 261° (W) 07:56:43 ?
JAS-1B 24 Apr 07:50:42 07:54:35 19° 311° (NW) 07:58:29 435.800 - 435.900 CW/SSB
Uosat F 24 Apr 07:57:42 08:00:31 15° 311° (NW) 08:03:20 435.120 FM
AO-7 24 Apr 08:15:31 08:23:01 40° 310° (NW) 08:30:31 29.400 - 29.500 MHz
SO-67 24 Apr 08:22:59 08:26:08 30° 96° (E) 08:29:16 435.3500 MHz FM
Sapphire 24 Apr 08:28:53 08:34:21 72° 48° (NE) 08:39:45 437.095 MHz 1200 baud AX-25 AFSK
JAS-2 24 Apr 08:51:52 08:57:17 76° 105° (ESE) 09:03:15 435.800 - 435.900 CW/SSB, 435.910 FM
Hamsat 24 Apr 08:53:30 08:57:28 35° 294° (WNW) 09:01:27 145.90 MHz
HO-68 24 Apr 09:01:24 09:05:00 14° 81° (E) 09:08:35 435.675 MHz FM
Oscar 10/S400 24 Apr 09:10:57 10:18:43 51° 191° (SSW) 17:39:27 145.825 - 145.975 CW/USB, Beacon 145.810 USB
KITSAT 1 24 Apr 09:12:57 09:20:38 43° 25° (NNE) 09:28:17 435.175 FM
PCSat 24 Apr 09:13:25 09:18:47 61° 238° (WSW) 09:24:06 145.825 MHz
RS-15 24 Apr 09:55:52 10:06:45 56° 335° (NNW) 10:17:31 29.354 - 29.394 USB, Beacon 29.352 USB
SO-67 24 Apr 09:56:15 09:59:14 26° 294° (WNW) 10:02:12 435.3500 MHz FM
Saudisat 1A 24 Apr 09:58:44 10:01:22 16° 113° (ESE) 10:04:00 436.775 MHz
AO-7 24 Apr 10:08:58 10:13:40 17° 335° (NNW) 10:18:23 29.400 - 29.500 MHz
Sapphire 24 Apr 10:12:53 10:17:21 27° 249° (WSW) 10:21:47 437.095 MHz 1200 baud AX-25 AFSK
JAS-2 24 Apr 10:37:50 10:42:01 24° 304° (NW) 10:46:28 435.800 - 435.900 CW/SSB, 435.910 FM
Oscar 11 24 Apr 10:46:12 10:50:03 29° 94° (E) 10:53:53 145.825 FM, Beacon 2401.500 USB
HO-68 24 Apr 10:47:07 10:54:16 61° 103° (ESE) 11:01:22 435.675 MHz FM
FUNcube-1 24 Apr 10:53:09 10:55:20 14° 87° (E) 10:57:33 145.950 - 145.970 MHz USB
PCSat 24 Apr 10:59:07 11:01:08 12° 258° (WSW) 11:03:09 145.825 MHz
KITSAT 1 24 Apr 11:08:45 11:16:55 87° 231° (SW) 11:25:01 435.175 FM
Saudisat 1A 24 Apr 11:35:51 11:40:19 82° 132° (SE) 11:44:48 436.775 MHz
AO-7 24 Apr 12:00:37 12:03:12 12° 3° (N) 12:05:47 29.400 - 29.500 MHz
RS-15 24 Apr 12:11:03 12:21:32 47° 7° (N) 12:32:02 29.354 - 29.394 USB, Beacon 29.352 USB
Uribyol 2 24 Apr 12:18:06 12:19:53 12° 45° (NE) 12:21:40 436.500 FM
Oscar 11 24 Apr 12:22:16 12:26:22 40° 294° (WNW) 12:30:26 145.825 FM, Beacon 2401.500 USB
FUNcube-1 24 Apr 12:28:04 12:32:22 86° 286° (WNW) 12:36:45 145.950 - 145.970 MHz USB
HO-68 24 Apr 12:35:12 12:41:45 40° 305° (NW) 12:48:17 435.675 MHz FM
AO-27 24 Apr 12:58:38 13:02:25 21° 54° (NE) 13:06:13 436.795 MHz FM
Oscar 19 24 Apr 12:59:17 13:03:48 32° 60° (ENE) 13:08:21 437.125 CW, 437.150 USB
KITSAT 1 24 Apr 13:04:55 13:11:21 27° 253° (WSW) 13:17:46 435.175 FM
ITAMSAT 1 24 Apr 13:07:33 13:11:35 24° 55° (NE) 13:15:37 435.822 SSB
Oscar 16 24 Apr 13:08:16 13:13:00 38° 63° (ENE) 13:17:47 437.025 USB, Beacon 2401.1428
Saudisat 1A 24 Apr 13:16:27 13:20:24 30° 334° (NNW) 13:24:21 436.775 MHz
Gurwin Techsat 1B 24 Apr 13:23:25 13:26:03 14° 47° (NE) 13:28:41 435.225 FM
AO-7 24 Apr 13:47:33 13:52:52 19° 30° (NNE) 13:58:11 29.400 - 29.500 MHz
Uribyol 2 24 Apr 13:53:18 13:58:15 49° 66° (ENE) 14:03:14 436.500 FM
AO-Echo 24 Apr 13:56:47 14:01:33 41° 65° (ENE) 14:06:13 ?
FUNcube-1 24 Apr 14:05:50 14:08:13 15° 305° (NW) 14:10:38 145.950 - 145.970 MHz USB
TMSAT-1 24 Apr 14:06:31 14:10:18 21° 53° (NE) 14:14:07 436.925 FM
Uosat F 24 Apr 14:23:29 14:25:35 13° 47° (NE) 14:27:40 435.120 FM
HO-68 24 Apr 14:24:15 14:27:39 14° 328° (NNW) 14:31:03 435.675 MHz FM
RS-15 24 Apr 14:24:47 14:35:46 73° 39° (NE) 14:46:53 29.354 - 29.394 USB, Beacon 29.352 USB
ISS 24 Apr 14:32:30 14:34:43 17° 144° (SE) 14:36:56 145.800 FM
AO-27 24 Apr 14:36:11 14:41:23 84° 254° (WSW) 14:46:37 436.795 MHz FM
Oscar 19 24 Apr 14:37:57 14:42:59 51° 260° (W) 14:48:03 437.125 CW, 437.150 USB
ITAMSAT 1 24 Apr 14:45:27 14:50:38 74° 256° (WSW) 14:55:50 435.822 SSB
Oscar 16 24 Apr 14:47:31 14:52:22 41° 263° (W) 14:57:16 437.025 USB, Beacon 2401.1428
Saudisat 1A 24 Apr 14:58:02 15:01:16 19° 358° (N) 15:04:30 436.775 MHz
Gurwin Techsat 1B 24 Apr 14:59:49 15:05:01 58° 68° (ENE) 15:10:15 435.225 FM
JAS-1B 24 Apr 15:00:33 15:06:49 36° 59° (ENE) 15:12:19 435.800 - 435.900 CW/SSB
SO-50 24 Apr 15:24:17 15:28:32 43° 124° (SE) 15:32:51 436.795 FM
OPAL 24 Apr 15:25:22 15:29:12 20° 92° (E) 15:33:01 ?
Uribyol 2 24 Apr 15:33:24 15:37:58 31° 266° (W) 15:42:33 436.500 FM
AO-Echo 24 Apr 15:35:39 15:40:24 37° 264° (W) 15:45:03 ?
AO-7 24 Apr 15:36:02 15:43:50 48° 55° (NE) 15:51:39 29.400 - 29.500 MHz
TMSAT-1 24 Apr 15:44:19 15:49:37 89° 254° (WSW) 15:54:58 436.925 FM
Uosat F 24 Apr 15:58:30 16:03:23 55° 67° (ENE) 16:08:17 435.120 FM
ISS 24 Apr 16:07:40 16:10:54 48° 163° (SSE) 16:14:10 145.800 FM
AO-27 24 Apr 16:18:42 16:21:43 15° 274° (W) 16:24:45 436.795 MHz FM
ITAMSAT 1 24 Apr 16:28:40 16:31:04 13° 276° (W) 16:33:30 435.822 SSB
RS-15 24 Apr 16:37:29 16:47:40 48° 245° (WSW) 16:58:04 29.354 - 29.394 USB, Beacon 29.352 USB
Saudisat 1A 24 Apr 16:38:24 16:42:12 27° 22° (NNE) 16:45:59 436.775 MHz
Gurwin Techsat 1B 24 Apr 16:40:53 16:45:22 27° 268° (W) 16:49:52 435.225 FM
JAS-1B 24 Apr 16:50:09 16:57:23 58° 258° (WSW) 17:03:32 435.800 - 435.900 CW/SSB
OPAL 24 Apr 17:03:26 17:08:41 78° 291° (WNW) 17:13:54 ?
SO-50 24 Apr 17:04:50 17:09:09 44° 326° (NW) 17:13:33 436.795 FM
UOSAT-12 24 Apr 17:15:38 17:19:49 35° 122° (ESE) 17:24:05 437.025 FM, 437.400 FM
TMSAT-1 24 Apr 17:27:00 17:30:20 17° 274° (W) 17:33:42 436.925 FM
AO-7 24 Apr 17:28:28 17:36:34 57° 257° (WSW) 17:44:45 29.400 - 29.500 MHz
JAS-2 24 Apr 17:29:24 17:32:04 14° 48° (NE) 17:34:42 435.800 - 435.900 CW/SSB, 435.910 FM
Uosat F 24 Apr 17:38:16 17:42:30 27° 267° (W) 17:46:45 435.120 FM
ISS 24 Apr 17:44:08 17:47:28 67° 183° (S) 17:50:49 145.800 FM
Hamsat 24 Apr 18:16:51 18:20:58 51° 69° (ENE) 18:25:09 145.90 MHz
Saudisat 1A 24 Apr 18:17:57 18:22:25 83° 45° (NE) 18:26:50 436.775 MHz
OPAL 24 Apr 18:43:20 18:46:50 19° 312° (NW) 18:50:20 ?
JAS-1B 24 Apr 18:46:56 18:49:15 12° 278° (W) 18:51:29 435.800 - 435.900 CW/SSB
SO-50 24 Apr 18:47:17 18:50:47 21° 350° (N) 18:54:19 436.795 FM
RS-15 24 Apr 18:54:10 18:56:54 11° 270° (W) 18:59:39 29.354 - 29.394 USB, Beacon 29.352 USB
UOSAT-12 24 Apr 18:55:20 18:59:52 53° 323° (NW) 19:04:30 437.025 FM, 437.400 FM
SO-67 24 Apr 19:02:43 19:05:46 29° 67° (ENE) 19:08:51 435.3500 MHz FM
JAS-2 24 Apr 19:10:58 19:16:20 65° 70° (ENE) 19:21:28 435.800 - 435.900 CW/SSB, 435.910 FM
ISS 24 Apr 19:20:51 19:23:58 36° 203° (SSW) 19:27:04 145.800 FM
AO-7 24 Apr 19:27:29 19:31:23 14° 280° (W) 19:35:18 29.400 - 29.500 MHz
HO-68 24 Apr 19:36:31 19:42:08 26° 46° (NE) 19:47:46 435.675 MHz FM
STRAND 1 24 Apr 19:50:56 19:55:43 39° 97° (E) 20:00:28 ?
Hamsat 24 Apr 19:53:57 19:57:16 22° 269° (W) 20:00:38 145.90 MHz
Saudisat 1A 24 Apr 19:58:23 20:01:31 19° 245° (WSW) 20:04:38 436.775 MHz
SO-50 24 Apr 20:29:08 20:32:47 23° 14° (NNE) 20:36:28 436.795 FM
SO-67 24 Apr 20:35:54 20:38:56 27° 265° (W) 20:41:59 435.3500 MHz FM
UOSAT-12 24 Apr 20:37:13 20:40:59 23° 346° (NNW) 20:44:48 437.025 FM, 437.400 FM
JAS-2 24 Apr 20:57:47 21:01:58 23° 269° (W) 21:06:02 435.800 - 435.900 CW/SSB, 435.910 FM
ISS 24 Apr 20:59:16 20:59:57 11° 222° (SW) 21:00:39 145.800 FM
HO-68 24 Apr 21:21:50 21:28:59 83° 69° (ENE) 21:36:12 435.675 MHz FM
STRAND 1 24 Apr 21:30:13 21:34:57 39° 297° (WNW) 21:39:40 ?
Oscar 11 24 Apr 21:47:08 21:51:18 50° 69° (ENE) 21:55:31 145.825 FM, Beacon 2401.500 USB
FUNcube-1 24 Apr 21:55:34 21:58:54 24° 61° (ENE) 22:02:15 145.950 - 145.970 MHz USB
SO-50 24 Apr 22:09:46 22:14:17 52° 37° (NE) 22:18:52 436.795 FM
MaSat-1 24 Apr 22:12:17 22:14:48 50° 307° (NW) 22:17:13 437.345 MHz
UOSAT-12 24 Apr 22:18:53 22:22:35 22° 10° (N) 22:26:18 437.025 FM, 437.400 FM
HO-68 24 Apr 23:11:47 23:17:32 26° 270° (W) 23:23:21 435.675 MHz FM
Sapphire 24 Apr 23:19:10 23:22:27 16° 106° (ESE) 23:25:44 437.095 MHz 1200 baud AX-25 AFSK
Oscar 11 24 Apr 23:24:18 23:27:46 23° 268° (W) 23:31:17 145.825 FM, Beacon 2401.500 USB
FUNcube-1 24 Apr 23:31:05 23:35:07 48° 261° (W) 23:39:11 145.950 - 145.970 MHz USB
SO-50 24 Apr 23:50:33 23:54:47 36° 238° (WSW) 23:59:04 436.795 FM
UOSAT-12 24 Apr 23:59:16 00:03:49 44° 34° (NE) 00:08:21 437.025 FM, 437.400 FM
PCSat 25 Apr 00:01:26 00:06:17 34° 115° (ESE) 00:11:08 145.825 MHz
Sapphire 25 Apr 00:59:38 01:05:03 77° 126° (SE) 01:10:29 437.095 MHz 1200 baud AX-25 AFSK
OPAL 25 Apr 01:09:51 01:12:56 16° 46° (NE) 01:16:03 ?
